Location: *
(50.5492°N, 7.7469°E)
Time: 23:58:20
(UTC+00:00)

Cosmos 1153 Rocket - Pass Details

Date: 21 October 2019
Orbit: 952 x 1007 km, 82.9° (Epoch: 16 November)

Event Time Altitude Azimuth Distance (km) Brightness Sun altitude
Rises 18:00:13 0° 350° (N) 3,646 7.7 -15.7°
Reaches altitude 10° 18:02:43 10° 350° (N) 2,694 7.0 -16.1°
Maximum altitude 18:08:53 90° 268° (W) 961 4.4 -17.1°
Drops below altitude 10° 18:15:02 10° 173° (S) 2,681 6.7 -18.0°
Sets 18:17:31 0° 173° (S) 3,627 7.4 -18.4°
